Regional Weather Roundup
Issued by NWS

Home | Current Version | Previous Version | Text Only | Print | Product List | Glossary On
Versions: 1 2 3 4 5 6 7 8 9 10 11 12 13 14 15 16 17 18 19 20 21 22 23 24 25 26 27 28 29 30 31 32 33 34 35 36 37 38 39 40 41 42 43 44 45 46 47 48 49
000
ASUS43 KDMX 232007
RWRIA

WEATHER ROUNDUP FOR IOWA
NATIONAL WEATHER SERVICE DES MOINES IA
300 PM CDT TUE SEP 23 2014

NOTE: "FAIR" INDICATES FEW OR NO CLOUDS BELOW 12,000 FEET WITH NO
SIGNIFICANT WEATHER AND/OR OBSTRUCTIONS TO VISIBILITY.

* - THESE STATIONS ARE NOT NWS STATIONS...THUS NOT UNDER NWS
QUALITY CONTROL.  THEY ALSO DO NOT REPORT WEATHER SUCH
AS PRECIPITATION OR FOG.

IAZ001>003-012>014-020>022-031>034-043>046-232100-
   NORTHWEST IOWA

CITY           SKY/WX    TMP DP  RH WIND       PRES   REMARKS
CARROLL *      SUNNY     63  57  82 SE6       30.17F
CHEROKEE *     DRIZZLE   59  59 100 SE13      30.14F
DENISON *      PTSUNNY   63  59  88 SE8       30.13F
LE MARS *      CLOUDY    63  57  82 S17G30    30.10F
ORANGE CITY *  PTSUNNY   63  55  77 S15G23    30.10F
SHELDON *      CLOUDY    59  57  94 S16G25    30.11F
SIOUX CITY     CLOUDY    63  58  83 SE14G20   30.10F
SPENCER        LGT RAIN  62  56  80 S13       30.15F
STORM LAKE *   SUNNY     59  59 100 S12       30.17F FOG
$$

IAZ055>058-069>071-079>083-090>094-232100-
   SOUTHWEST IOWA

CITY           SKY/WX    TMP DP  RH WIND       PRES   REMARKS
ATLANTIC *     CLOUDY    70  54  56 SE14G24   30.15F
AUDUBON *      SUNNY     70  54  56 SE8       30.17F
CLARINDA *     SUNNY     72  54  53 S15       30.18S
COUNCIL BLFS * CLOUDY    70  57  64 S15       30.12F
CRESTON *      SUNNY     68  52  56 S14G23    30.19S
HARLAN  *      PTSUNNY   70  55  60 SE16G25   30.17F
LAMONI         CLOUDY    69  53  56 SE13      30.20F
RED OAK *      MOSUNNY   72  54  53 S16       30.15F
SHENANDOAH *   SUNNY     72  55  56 S9G18     30.15F
$$

IAZ047>049-059>061-072>074-084-232100-
   CENTRAL IOWA

CITY           SKY/WX    TMP DP  RH WIND       PRES   REMARKS
AMES           CLOUDY    69  52  54 S10       30.19F
ANKENY *       SUNNY     70  52  52 SE14G21   30.19F
CHARITON *     SUNNY     72  52  49 SE14      30.20F
DES MOINES     CLOUDY    72  51  47 S13       30.19F
GRINNELL*      CLOUDY    70  46  43 SE13      30.23F
KNOXVILLE *    SUNNY     70  52  52 SE12      30.20F
MARSHALLTOWN   PTSUNNY   70  50  49 S12       30.21F
PELLA *        CLOUDY    72  54  53 SE10G16   30.23F
PERRY *          N/A     70  54  56 SE8       30.18F
$$

IAZ004>006-015-016-023>025-035-036-232100-
   NORTH CENTRAL IOWA

CITY           SKY/WX    TMP DP  RH WIND       PRES   REMARKS
ALGONA *       SUNNY     68  50  52 S15G23    30.18S
CLARION *      SUNNY     72  45  37 S14G24    30.18F
ESTHERVILLE    CLOUDY    66  52  60 S20G25    30.15F
FORT DODGE *   CLOUDY    66  52  59 S9        30.19F
MASON CITY     MOSUNNY   71  51  49 S16G23    30.20F
FOREST CITY *  SUNNY     72  48  43 S16       30.18F
IOWA FALLS *     N/A     70  48  46 SE16      30.21F
$$

IAZ007>011-017>019-026>030-037>042-050>054-066-232100-
   NORTHEAST IOWA

CITY           SKY/WX    TMP DP  RH WIND       PRES   REMARKS
CEDAR RAPIDS   MOSUNNY   71  50  47 S10       30.24F
CHARLES CITY * SUNNY     70  50  49 SE10G20   30.22F
CLINTON *      SUNNY     73  46  38 S6        30.29F
DECORAH *      SUNNY     72  50  46 S10       30.23F
DUBUQUE        SUNNY     71  47  42 VRB7      30.27F
MONTICELLO *   SUNNY     75  46  35 S8        30.25F
OELWEIN *      SUNNY     72  48  43 S10G16    30.24F
WATERLOO       MOSUNNY   72  49  44 S14       30.22F
$$

IAZ064-065-067-068-078-232100-
   EAST CENTRAL IOWA

CITY           SKY/WX    TMP DP  RH WIND       PRES   REMARKS
DAVENPORT      SUNNY     74  43  32 S6        30.27F
IOWA CITY      MOSUNNY   72  50  45 S9        30.25F
MT. PLEASANT * PTSUNNY   75  43  31 S8        30.25F
MUSCATINE *    SUNNY     75  45  33 S8        30.25F
QUAD CITIES    SUNNY     74  46  36 SW9       30.26F
$$

IAZ062-063-075>077-085>089-095>099-232100-
   SOUTHEAST IOWA

CITY           SKY/WX    TMP DP  RH WIND       PRES   REMARKS
BURLINGTON     MOSUNNY   73  49  42 S8        30.25F
FAIRFIELD *    SUNNY     72  48  43 S9        30.25F
FORT MADISON * SUNNY     75  46  35 CALM      30.26F
KEOKUK *       SUNNY     73  48  40 SE9       30.25F
OSKALOOSA *      N/A     72  52  49 S8        30.23F
CENTERVILLE *  SUNNY     70  52  52 SE8       30.24F
OTTUMWA        CLOUDY    70  49  47 S9        30.23F
WASHINGTON *   SUNNY     73  46  38 S9G15     30.25F
$$

ABBREVIATIONS USED IN REMARKS
   TC - TEMPERATURES IN CELSIUS
  WCI - WIND CHILL INDEX
   HX - HEAT INDEX
  VSB - VISIBILITY
$$



USA.gov is the U.S. government's official web portal to all federal, state and local government web resources and services.